274  
ASUS41 KGYX 250310  
RWRGYX  
WEATHER ROUNDUP FOR MAINE AND NEW HAMPSHIRE  
NATIONAL WEATHER SERVICE GRAY ME  
1100 PM EDT FRI SEP 24 2021  
 
MEZ002-005-006-010-012-015-018-020-021-024-026-027-029-250400-  
MAINE  
 
CITY SKY/WX TMP DP RH WIND PRES REMARKS
 
PORTLAND LGT RAIN 65 63 93 CALM 30.02F  
SANFORD CLOUDY 64 62 93 SW3 30.04S  
BAR HARBOR CLOUDY 67 66 97 S15G21 30.06F  
WISCASSET LGT RAIN 69 68 96 SW9G17 30.04S  
ROCKLAND CLOUDY 65 65 100 S7 30.03F  
FRYEBURG PTCLDY 63 61 93 W3 30.03F  
LEWISTONAUBURN CLOUDY 63 62 97 CALM 30.03F  
AUGUSTA LGT RAIN 65 63 93 W8G17 30.03R FOG  
WATERVILLE LGT RAIN 65 64 97 W6 30.00R  
BANGOR HVY RAIN 69 68 96 S10 30.03F FOG  
GREENVILLE N/A 57 54 89 N8 30.03S  
MILLINOCKET LGT RAIN 67 66 97 SE8G17 30.02F FOG  
HOULTON CLOUDY 69 63 81 S12G20 30.03F  
PRESQUE ISLE LGT RAIN 68 64 87 S14G24 30.03S  
FRENCHVILLE HVY RAIN 61 59 93 W7 30.02R FOG  
CARIBOU LGT RAIN 69 62 78 S20G30 30.01F  

 
 
NHZ002-005-008-009-011-012-014-250400-  
NEW HAMPSHIRE  
 
CITY SKY/WX TMP DP RH WIND PRES REMARKS
 
PORTSMOUTH CLOUDY 66 60 82 W6 30.04S  
ROCHESTER CLOUDY 64 62 93 CALM 30.03S  
NASHUA CLOUDY 64 64 100 CALM 30.04F  
MANCHESTER CLOUDY 66 59 78 W3 30.02S  
CONCORD NOT AVBL  
LACONIA MOCLDY 61 60 97 CALM 30.06R  
PLYMOUTH FAIR 55 53 95 CALM 30.06S  
BERLIN FOG 53 51 93 CALM 30.06F VSB 1/2  
WHITEFIELD FOG 50 49 96 CALM 30.07S VSB 1/2  
JAFFREY CLEAR 59 59 100 CALM 30.07S  
KEENE FOG 57 57 100 CALM 30.07S VSB 1/4  
LEBANON MOCLDY 56 53 90 CALM 30.07S FOG  
MT WASHINGTON MOCLDY 46 27 46 SW35G41 N/A  

 
 
VTZ005-007-008-250400-  
VERMONT  
 
CITY SKY/WX TMP DP RH WIND PRES REMARKS
 
ST JOHNSBURY N/A 54 53 97 MISG 30.05F  
MONTPELIER CLEAR 53 50 89 CALM 30.10F  
BURLINGTON CLEAR 57 50 77 S5 30.04F  

 
 
MAZ007-012-024-CTZ003-RIZ002-NYZ038-NYZ072-250400-  
SOUTHERN NEW ENGLAND AND NY  
 
CITY SKY/WX TMP DP RH WIND PRES REMARKS
 
BOSTON CLOUDY 72 55 55 W6 30.04S  
WORCESTER CLOUDY 61 57 87 W8 30.06F  
NANTUCKET MOCLDY 71 69 93 SE13 30.04S  
PROVIDENCE MOCLDY 66 60 81 W3 30.05S  
HARTFORD PTCLDY 58 54 86 W5 30.05F  
ALBANY CLEAR 53 52 96 CALM 30.06F  
NEW YORK CITY PTCLDY 68 51 54 NW7 30.06S  

 
 
ANZ081-ANZ082-ANZ150-NHZ014-MEZ023>029-250400-  
COASTAL MARINE OBSERVATIONS  
 
STATION/POSITION TIME TEMP WIND PRES WAVE
 
AIR SEA DIR/SP/G HT/PER  
(UTC) (F) (DEG/KT/KT) (MB) (FT/S)  
MOUNT DESERT ROC 0300 140/ 24/ 27 1017.8F  
ISLE OF SHOALS 0300 68 250/ 8/ 8 1016.4F  
JEFFREYS LEDGE 0256 67 N/A 5/ 8  
CASHES LEDGE BUO 0250 65 61 160/ 16/ 17 1016.4F 5/ 7  
GEORGES BANK BUO 0250 71 66 140/ 12/ 14 1019.8F 5/ 8  

 
   
............KEY...........
 
 
WCI - WIND CHILL  
TC - TEMPERATURE IN CELSIUS  
VSB - VISIBILITY
IN MILES  
HX - HEAT INDEX  
FAIR- INDICATES FEW OR NO CLOUDS BELOW 12,000 FT, WITH NO  
SIGNIFICANT WEATHER AND/OR S TO VISIBILITY.  
 
 
 
CLICK HERE TO GO TO PREVIOUS BULLETINS.

The Nexlab ME Page
The Nexlab NH Page Main Text Page